EW2516 Weather Reports


Display with metric or nautical units.
time (UTC)temp
F
wind
direction
speed
MPH
gust
MPH
rain 1hr
in
rain 24hr
in
rain mn
in
humidity
%
barometer
mb
20260507040518 55 0 3.0 6.0 0.00 0.00 0.00 48 1014.9
20260507035517 55 23 3.0 6.0 0.00 0.00 0.00 46 1014.4
20260507034517 55 68 1.0 3.0 0.00 0.00 0.00 44 1013.8
20260507033517 55 90 1.0 3.0 0.00 0.00 0.00 43 1013.1
20260507032539 56 90 1.0 3.0 0.00 0.00 0.00 42 1013.2
20260507031517 57 90 3.0 5.0 0.00 0.00 0.00 41 1013.0
20260507030517 57 90 3.0 7.0 0.00 0.00 0.00 39 1013.0
20260507025518 58 90 5.0 8.0 0.00 0.00 0.00 38 1012.9
20260507024538 59 113 5.0 9.0 0.00 0.00 0.00 37 1012.4
20260507023538 60 90 5.0 8.0 0.00 0.00 0.00 36 1012.0
20260507022517 61 90 6.0 11.0 0.00 0.00 0.00 35 1011.9
20260507021517 62 90 7.0 13.0 0.00 0.00 0.00 33 1011.5
20260507020517 62 68 8.0 13.0 0.00 0.00 0.00 34 1011.5
20260507015517 63 45 8.0 17.0 0.00 0.00 0.00 31 1011.6
20260507014538 63 45 4.0 7.0 0.00 0.00 0.00 33 1011.3
20260507013517 63 45 5.0 10.0 0.00 0.00 0.00 33 1011.3
20260507012517 64 23 8.0 12.0 0.00 0.00 0.00 32 1011.3
20260507011542 64 23 7.0 11.0 0.00 0.00 0.00 31 1011.3
20260507010538 65 23 6.0 10.0 0.00 0.00 0.00 31 1011.3
20260507005518 65 23 5.0 9.0 0.00 0.00 0.00 30 1011.0
20260507004538 66 45 6.0 13.0 0.00 0.00 0.00 28 1011.5
20260507003517 66 23 5.0 9.0 0.00 0.00 0.00 28 1011.6
20260507002518 66 23 4.0 8.0 0.00 0.00 0.00 28 1011.4
20260507001518 66 0 4.0 9.0 0.00 0.00 0.00 28 1011.3
20260507000517 66 23 6.0 12.0 0.00 0.00 0.00 27 1011.1
20260506235518 66 23 9.0 14.0 0.00 0.00 0.00 28 1011.0
20260506234543 66 23 8.0 13.0 0.00 0.00 0.00 27 1010.8
20260506233516 67 45 9.0 18.0 0.00 0.00 0.00 27 1010.7
20260506232517 67 0 6.0 11.0 0.00 0.00 0.00 27 1010.7
20260506231517 67 23 7.0 10.0 0.00 0.00 0.00 26 1010.9
20260506230516 68 23 9.0 15.0 0.00 0.00 0.00 26 1010.9
20260506225517 69 45 6.0 13.0 0.00 0.00 0.00 26 1011.0
20260506224517 69 23 6.0 13.0 0.00 0.00 0.00 26 1011.4
20260506223518 69 0 5.0 9.0 0.00 0.00 0.00 26 1011.5
20260506222518 69 23 7.0 12.0 0.00 0.00 0.00 26 1011.6
20260506221518 69 0 9.0 19.0 0.00 0.00 0.00 26 1011.6
20260506220517 69 23 10.0 18.0 0.00 0.00 0.00 26 1011.5
20260506215517 69 23 8.0 12.0 0.00 0.00 0.00 27 1011.6
20260506214558 69 23 7.0 12.0 0.00 0.00 0.00 25 1011.8
20260506213517 70 45 8.0 13.0 0.00 0.00 0.00 26 1011.8
20260506212517 69 0 4.0 10.0 0.00 0.00 0.00 27 1011.8
20260506211517 69 45 4.0 8.0 0.00 0.00 0.00 26 1012.2
20260506210517 70 23 7.0 12.0 0.00 0.00 0.00 25 1012.6
20260506205517 70 0 7.0 13.0 0.00 0.00 0.00 26 1012.7
20260506204538 69 23 9.0 15.0 0.00 0.00 0.00 25 1012.8
20260506203516 69 23 8.0 17.0 0.00 0.00 0.00 26 1012.9
20260506202517 69 23 8.0 13.0 0.00 0.00 0.00 26 1013.2
20260506201517 70 23 7.0 13.0 0.00 0.00 0.00 25 1013.1
20260506200518 70 0 7.0 12.0 0.00 0.00 0.00 25 1013.4
20260506195517 69 23 9.0 14.0 0.00 0.00 0.00 25 1013.4
20260506194516 69 23 6.0 11.0 0.00 0.00 0.00 26 1013.6
20260506193517 69 23 8.0 14.0 0.00 0.00 0.00 26 1013.6
20260506192517 69 0 5.0 12.0 0.00 0.00 0.00 25 1013.6
20260506191517 69 23 5.0 10.0 0.00 0.00 0.00 25 1014.0
20260506190517 68 45 4.0 10.0 0.00 0.00 0.00 25 1013.9
20260506185517 69 23 7.0 15.0 0.00 0.00 0.00 25 1014.1
20260506184517 69 293 3.0 7.0 0.00 0.00 0.00 24 1014.1
20260506183518 67 0 4.0 11.0 0.00 0.00 0.00 25 1014.2
20260506182518 68 23 5.0 9.0 0.00 0.00 0.00 25 1014.6
20260506181516 67 90 4.0 10.0 0.00 0.00 0.00 27 1014.4
20260506180516 66 135 7.0 14.0 0.00 0.00 0.00 26 1014.5
20260506175517 66 23 4.0 8.0 0.00 0.00 0.00 27 1014.6
20260506174519 66 135 3.0 7.0 0.00 0.00 0.00 27 1014.7
20260506173516 66 90 3.0 5.0 0.00 0.00 0.00 28 1015.2
20260506172537 64 158 2.0 4.0 0.00 0.00 0.00 29 1014.8
20260506171516 64 225 2.0 9.0 0.00 0.00 0.00 29 1015.1
20260506170537 62 113 2.0 5.0 0.00 0.00 0.00 31 1015.3
20260506165536 61 180 4.0 9.0 0.00 0.00 0.00 31 1015.5
20260506164516 60 180 4.0 6.0 0.00 0.00 0.00 31 1015.3
20260506163517 59 225 3.0 7.0 0.00 0.00 0.00 34 1015.4
20260506162516 57 225 4.0 9.0 0.00 0.00 0.00 32 1015.3
20260506161517 56 203 5.0 10.0 0.00 0.00 0.00 35 1015.5
20260506160517 56 203 5.0 11.0 0.00 0.00 0.00 37 1015.8
20260506155517 54 203 5.0 11.0 0.00 0.00 0.00 40 1015.6
20260506154516 53 203 6.0 12.0 0.00 0.00 0.00 41 1015.7
20260506153538 52 203 5.0 10.0 0.00 0.00 0.00 43 1015.7
20260506152516 51 203 7.0 13.0 0.00 0.00 0.00 43 1015.7
20260506151516 50 225 8.0 14.0 0.00 0.00 0.00 44 1015.8
20260506150516 49 225 8.0 16.0 0.00 0.00 0.00 44 1015.9
20260506145538 48 225 8.0 15.0 0.00 0.00 0.00 46 1015.9
20260506144516 46 225 9.0 15.0 0.00 0.00 0.00 50 1015.8
20260506143517 43 203 7.0 12.0 0.00 0.00 0.00 56 1015.7
20260506142517 41 203 5.0 10.0 0.00 0.00 0.00 58 1015.4
20260506141517 39 203 6.0 12.0 0.00 0.00 0.00 60 1015.5
20260506140517 38 203 5.0 9.0 0.00 0.00 0.00 61 1015.3
20260506135537 37 203 6.0 11.0 0.00 0.00 0.00 60 1015.5
20260506134516 36 203 5.0 11.0 0.00 0.00 0.00 60 1015.5
20260506133516 36 203 5.0 10.0 0.00 0.00 0.00 59 1015.8
20260506132517 35 203 6.0 13.0 0.00 0.00 0.00 59 1015.9
20260506131516 34 203 7.0 12.0 0.00 0.00 0.00 60 1015.8
20260506130516 33 203 7.0 11.0 0.00 0.00 0.00 62 1015.6
20260506125516 32 203 6.0 11.0 0.00 0.00 0.00 63 1015.6
20260506124516 32 203 7.0 11.0 0.00 0.00 0.00 62 1015.8
20260506123517 33 203 6.0 12.0 0.00 0.00 0.00 62 1015.7
20260506122516 32 203 6.0 11.0 0.00 0.00 0.00 62 1015.8
20260506121516 32 203 6.0 11.0 0.00 0.00 0.00 63 1015.9
20260506120517 32 203 6.0 13.0 0.00 0.00 0.00 63 1016.1
20260506115516 32 203 5.0 10.0 0.00 0.00 0.00 63 1016.3
20260506114537 32 203 6.0 12.0 0.00 0.00 0.00 62 1016.4
20260506113518 32 203 7.0 14.0 0.00 0.00 0.00 62 1016.4
20260506112516 32 203 7.0 13.0 0.00 0.00 0.00 62 1016.5
20260506111537 31 203 7.0 13.0 0.00 0.00 0.00 63 1016.6
20260506110537 31 203 6.0 11.0 0.00 0.00 0.00 63 1016.8
20260506105536 31 203 7.0 13.0 0.00 0.00 0.00 63 1016.9
20260506104536 32 203 7.0 12.0 0.00 0.00 0.00 62 1016.9
20260506103516 32 203 7.0 12.0 0.00 0.00 0.00 61 1017.0
20260506102516 33 203 7.0 13.0 0.00 0.00 0.00 60 1017.3
20260506101517 33 203 7.0 15.0 0.00 0.00 0.00 60 1017.2
20260506100517 33 203 7.0 12.0 0.00 0.00 0.00 59 1017.5
20260506095518 33 203 7.0 12.0 0.00 0.00 0.00 59 1017.5
20260506094516 33 180 8.0 14.0 0.00 0.00 0.00 59 1017.8
20260506093537 33 203 7.0 12.0 0.00 0.00 0.00 59 1018.0
20260506092516 33 203 6.0 12.0 0.00 0.00 0.00 58 1018.3
20260506091517 34 203 5.0 11.0 0.00 0.00 0.00 58 1018.3
20260506090516 34 180 6.0 11.0 0.00 0.00 0.00 57 1018.5
20260506085516 35 180 6.0 12.0 0.00 0.00 0.00 55 1018.5
20260506084516 35 203 6.0 14.0 0.00 0.00 0.00 54 1018.7
20260506083516 35 180 5.0 12.0 0.00 0.00 0.00 54 1018.8
20260506082516 35 180 5.0 11.0 0.00 0.00 0.00 54 1018.9
20260506081517 35 180 6.0 15.0 0.00 0.00 0.00 54 1019.0
20260506080538 35 180 4.0 10.0 0.00 0.00 0.00 55 1019.2
20260506073517 35 180 4.0 8.0 0.00 0.00 0.00 56 1019.7
20260506072557 35 180 4.0 8.0 0.00 0.00 0.00 55 1019.5
20260506071517 35 180 5.0 13.0 0.00 0.00 0.00 55 1019.6
20260506070516 35 180 5.0 11.0 0.00 0.00 0.00 55 1019.7
20260506062516 36 180 4.0 11.0 0.00 0.00 0.00 52 1020.0
20260506061517 36 180 5.0 10.0 0.00 0.00 0.00 52 1019.7
20260506060516 36 180 4.0 10.0 0.00 0.00 0.00 51 1019.9
20260506050517 39 135 7.0 12.0 0.00 0.00 0.00 46 1020.7
20260506044517 40 135 5.0 11.0 0.00 0.00 0.00 46 1020.9
20260506043517 40 135 6.0 11.0 0.00 0.00 0.00 45 1020.9
20260506042517 40 135 5.0 11.0 0.00 0.00 0.00 45 1020.9
20260506041519 40 135 6.0 13.0 0.00 0.00 0.00 45 1021.1